User: anonymous   Login
Location: Brno
(49.2000°N, 16.6330°E)
Time: 00:22:13
(UTC+01:00)
Language:

Cosmos 1603 - Orbit

View from above orbital plane
View from above orbital plane
View from above satellite
View from above satellite

Ground track
Ground track

The orbit data is extracted from the following two-line orbital elements,

1 15333U 84106A   17050.21355915 -.00000204  00000-0 -82214-4 0  9997
2 15333  71.0276 339.4081 0018573  20.3233 339.8624 14.14045141671582
Epoch (UTC): 19 February 2017 05:07:31
Eccentricity: 0.0018573
inclination: 71.0276°
perigee height: 832 km
apogee height: 859 km
right ascension of ascending node: 339.4081°
argument of perigee: 20.3233°
revolutions per day: 14.14045141
mean anomaly at epoch: 339.8624°
orbit number at epoch: 67158

The dashed part of the orbit path shows where the satellite is in the earth's shadow,  

DLR